[[{"header":{"parameterUnit":"m.s-1","parameterCategory":1,"la1":30.2991,"la2":30.254,"lo1":-89.0895,"lo2":-89.0444,"dy":0.0017,"dx":0.0017,"nx":28,"ny":28,"refTime":"2024-08-31T03:00:00:Z","depth":0,"parameterNumber":2,"parameterNumberName":"U-component_of_WINDS"},"data":[0,0,0,0,0,0,0,0,0,0,0,0,0,0,0,0,0,0,0,0,0,0,0,0,0,0,0,0,0,0,0,0,0,0,0,0,0,0,0,0,0,0,0,0,0,0,0,0,0,0,0,0,0,0,0,0,0,0,-3.3571,-3.3572,0,-3.3644,-3.3645,-3.3646,-3.3563,-3.356,-3.3557,-3.3554,-3.3632,-3.3637,-3.3642,0,0,0,0,0,0,0,0,0,0,0,0,0,-3.3364,-3.3368,-3.3571,-3.3572,-3.3573,-3.3644,-3.3645,-3.3646,-3.3564,-3.356,-3.3556,-3.3553,-3.363,-3.3636,-3.3642,0,0,0,0,0,0,0,0,0,0,0,0,0,-3.3447,-3.3369,-3.3571,-3.354,-3.3538,-3.3644,-3.3645,-3.3646,-3.3565,-3.356,-3.3555,-3.3551,-3.3628,-3.3635,-3.3643,-3.3782,0,0,-3.3666,-3.3669,0,0,0,0,0,0,0,0,-3.3443,-3.3455,-3.3544,-3.3543,-3.3541,-3.359,-3.36,-3.3692,-3.3566,-3.3555,-3.3554,-3.3549,-3.3622,-3.3629,-3.3654,-3.3786,-3.3789,-3.3666,-3.3671,-3.3674,-3.3676,0,0,0,0,0,0,0,-3.3437,-3.3451,-3.36,-3.3545,-3.3543,-3.3524,-3.3531,-3.3617,-3.3614,-3.3555,-3.355,-3.3559,-3.362,-3.3647,-3.3655,-3.3791,-3.3666,-3.3673,-3.3677,-3.368,-3.4043,-3.4048,0,0,0,0,0,0,-3.3434,-3.3447,-3.3597,-3.3602,-3.3479,-3.3532,-3.3539,-3.3579,-3.3613,-3.3613,-3.3563,-3.3555,-3.3636,-3.3646,-3.3657,-3.3823,-3.3674,-3.3681,-3.3685,-3.4038,-3.4044,-3.405,0,0,0,0,0,0,-3.343,-3.3448,-3.3594,-3.3523,-3.354,-3.354,-3.3585,-3.3583,-3.3609,-3.3618,-3.3618,-3.3591,-3.3633,-3.3647,-3.3752,-3.3825,-3.3684,-3.3691,-3.4032,-3.404,-3.4047,-3.4156,0,0,0,0,0,0,-3.3424,-3.3447,-3.3499,-3.3525,-3.3544,-3.3687,-3.359,-3.3587,-3.3622,-3.3612,-3.3644,-3.3645,-3.363,-3.3741,-3.376,-3.3832,-3.3697,-3.4026,-3.4036,-3.4045,-3.4146,-3.4166,-3.4184,0,0,0,0,0,-3.3417,-3.3527,-3.3502,-3.3521,-3.3609,-3.3691,-3.3703,-3.3683,-3.3628,-3.3681,-3.3687,-3.3644,-3.3814,-3.3753,-3.3773,-3.3849,-3.4021,-3.4033,-3.4044,-3.4137,-3.4162,-3.4184,0,0,0,0,0,0,-3.351,-3.353,-3.3502,-3.3623,-3.3657,-3.3677,-3.3743,-3.371,-3.376,-3.3748,-3.3723,-3.3731,-3.3843,-3.3857,-3.3788,-3.3987,-3.3909,-3.3925,-3.3973,-3.3997,-3.4016,-3.4009,-3.3703,0,0,0,0,0,-3.3545,-3.3609,-3.3623,-3.3729,-3.3747,-3.3743,-3.3778,-3.376,-3.3793,-3.3807,-3.3821,-3.3856,-3.3917,-3.3958,-3.4015,-3.4149,-3.4155,-3.4211,-3.423,-3.4246,-3.4259,-3.4332,-3.4357,-3.4088,-3.4088,-3.4088,0,0,-3.3616,-3.3635,-3.3677,-3.3748,-3.3771,-3.384,-3.3755,-3.383,-3.3881,-3.3819,-3.3918,-3.3931,-3.3968,-3.4089,-3.4142,-3.4103,-3.4336,-3.4261,-3.4273,-3.4278,-3.4347,-3.4372,-3.4395,-3.4096,-3.4095,-3.4093,0,0,-3.3782,-3.3803,-3.3893,-3.3919,-3.3955,-3.3952,-3.3974,-3.4001,-3.4007,-3.4107,-3.4062,-3.4123,-3.4229,-3.4258,-3.4287,-3.4467,-3.4429,-3.4487,-3.4586,-3.4657,-3.4678,-3.4697,-3.4761,-3.4784,-3.4501,-3.4501,-3.4501,0,-3.3866,-3.3966,-3.3944,-3.4023,-3.4056,-3.4003,-3.4095,-3.4122,-3.4176,-3.42,-3.4157,-3.429,-3.4312,-3.4438,-3.4482,-3.4508,-3.4533,-3.4482,-3.4677,-3.4695,-3.4712,-3.4773,-3.4797,-3.4508,-3.4507,-3.4506,-3.4506,0,-3.4068,-3.4139,-3.4208,-3.4261,-3.4302,-3.4387,-3.4379,-3.4424,-3.4404,-3.4407,-3.451,-3.4535,-3.4597,-3.4626,-3.4607,-3.4751,-3.4726,-3.468,-3.4601,-3.4745,-3.4802,-3.4825,-3.4517,-3.4515,-3.4513,-3.4511,0,0,-3.429,-3.4332,-3.4358,-3.4382,-3.442,-3.4475,-3.4559,-3.4619,-3.4658,-3.4699,-3.4769,-3.4862,-3.482,-3.4853,-3.4838,-3.49,-3.5042,-3.4847,-3.4847,-3.4882,-3.5203,-3.5235,-3.5263,-3.5018,-3.5023,-3.5026,-3.5199,0,-3.4456,-3.46,-3.4584,-3.4722,-3.4788,-3.4741,-3.4815,-3.4847,-3.4853,-3.491,-3.4917,-3.4983,-3.4923,-3.4943,-3.5003,-3.5012,-3.5106,-3.5,-3.5084,-3.5087,-3.5074,-3.5292,-3.5327,-3.5488,-3.5221,-3.5225,-3.5228,0,-3.4666,-3.4714,-3.4859,-3.4889,-3.4916,-3.4982,-3.5037,-3.5092,-3.5129,-3.5129,-3.5168,-3.5142,-3.5229,-3.515,-3.5269,-3.5198,-3.5232,-3.5242,-3.5248,-3.5253,-3.5165,-3.5303,-3.554,-3.5563,-3.5263,-3.526,-3.5257,0,-3.4813,-3.4914,-3.5014,-3.5036,-3.5074,-3.5122,-3.514,-3.5172,-3.521,-3.5259,-3.5283,-3.5342,-3.5374,-3.5421,-3.5413,-3.5356,-3.5536,-3.5456,-3.5538,-3.5539,-3.5576,-3.5573,-3.582,-3.5601,-3.5601,-3.56,-3.56,0,-3.4998,-3.5088,-3.508,-3.5141,-3.5242,-3.5224,-3.5325,-3.5337,-3.5367,-3.5431,-3.5396,-3.5457,-3.5443,-3.5505,-3.55,-3.56,-3.5615,-3.5618,-3.5615,-3.562,-3.5619,-3.564,-3.5628,-3.5607,-3.5605,-3.5604,-3.5603,0,-3.5177,-3.5175,-3.5281,-3.5309,-3.5318,-3.5391,-3.5415,-3.5474,-3.5478,-3.556,-3.5578,-3.5585,-3.5655,-3.5653,-3.5733,-3.573,-3.5853,-3.5838,-3.584,-3.5836,-3.5918,-3.591,-3.6186,-3.6221,-3.5981,-3.5983,-3.5985,0,-3.5294,-3.5362,-3.5398,-3.5438,-3.5459,-3.5524,-3.5563,-3.555,-3.5592,-3.5641,-3.5694,-3.5762,-3.5815,-3.5931,-3.5943,-3.6006,-3.5991,-3.6084,-3.6,-3.6003,-3.5991,-3.5987,-3.5994,-3.6099,-3.6102,-3.6104,-3.6106,0,-3.5501,-3.5498,-3.5554,-3.5612,-3.5659,-3.5704,-3.5745,-3.578,-3.5772,-3.5821,-3.5893,-3.5934,-3.6017,-3.6085,-3.6145,-3.6165,-3.6135,-3.6133,-3.6155,-3.6159,-3.6157,-3.6159,-3.5883,-3.6126,-3.6124,-3.6122,-3.6121,-3.612,-3.5652,-3.5711,-3.5746,-3.5811,-3.584,-3.588,-3.5937,-3.5949,-3.6008,-3.6073,-3.6063,-3.6144,-3.6182,-3.626,-3.6286,-3.635,-3.6317,-3.6349,-3.6357,-3.6365,-3.6374,-3.6149,-3.6361,-3.6361,-3.636,-3.636,-3.6359,0,-3.5857,-3.5877,-3.5938,-3.5996,-3.6048,-3.6016,-3.606,-3.6106,-3.6177,-3.6215,-3.6268,-3.6352,-3.6418,-3.6438,-3.6502,-3.655,-3.6538,-3.6568,-3.6563,-3.6568,-3.64,-3.6373,-3.6576,-3.6576,-3.6576,-3.6576,-3.6576,-3.6576,-3.5969,-3.6067,-3.6069,-3.6182,-3.6203,-3.6281,-3.6309,-3.6346,-3.6376,-3.6471,-3.6526,-3.6538,-3.657,-3.6637,-3.6697,-3.6701,-3.6726,-3.6761,-3.676,-3.6602,-3.658,-3.6559,-3.6534,-3.6767,-3.6768,-3.6923,-3.6924,-3.6925]},{"header":{"parameterUnit":"m.s-1","parameterCategory":1,"la1":30.2991,"la2":30.254,"lo1":-89.0895,"lo2":-89.0444,"dy":0.0017,"dx":0.0017,"nx":28,"ny":28,"refTime":"2024-08-31T03:00:00:Z","depth":0,"parameterNumber":3,"parameterNumberName":"V-component_of_WINDS"},"data":[0,0,0,0,0,0,0,0,0,0,0,0,0,0,0,0,0,0,0,0,0,0,0,0,0,0,0,0,0,0,0,0,0,0,0,0,0,0,0,0,0,0,0,0,0,0,0,0,0,0,0,0,0,0,0,0,0,0,-0.3255,-0.3254,0,-0.3135,-0.3134,-0.3132,-0.3116,-0.3117,-0.3118,-0.3119,-0.2992,-0.2987,-0.2983,0,0,0,0,0,0,0,0,0,0,0,0,0,-0.3464,-0.346,-0.3255,-0.3253,-0.3252,-0.3135,-0.3134,-0.3132,-0.3116,-0.3117,-0.3119,-0.312,-0.2993,-0.2988,-0.2982,0,0,0,0,0,0,0,0,0,0,0,0,0,-0.3361,-0.3459,-0.3255,-0.323,-0.3226,-0.3136,-0.3134,-0.3132,-0.3115,-0.3117,-0.3119,-0.312,-0.2995,-0.2988,-0.2982,-0.2906,0,0,-0.2961,-0.2958,0,0,0,0,0,0,0,0,-0.3367,-0.3354,-0.3235,-0.3231,-0.3227,-0.3142,-0.316,-0.3056,-0.3115,-0.3157,-0.3119,-0.3121,-0.304,-0.303,-0.3003,-0.29,-0.2895,-0.2961,-0.2957,-0.2954,-0.2952,0,0,0,0,0,0,0,-0.3374,-0.3359,-0.3207,-0.3233,-0.3229,-0.3223,-0.321,-0.3141,-0.309,-0.3154,-0.3152,-0.3139,-0.3038,-0.301,-0.3,-0.2893,-0.2961,-0.2955,-0.2951,-0.2948,-0.2719,-0.2717,0,0,0,0,0,0,-0.3387,-0.3365,-0.3211,-0.3204,-0.3303,-0.3218,-0.3203,-0.3168,-0.3091,-0.3081,-0.3137,-0.3138,-0.302,-0.3008,-0.2996,-0.29,-0.2954,-0.2948,-0.2944,-0.2721,-0.2719,-0.2716,0,0,0,0,0,0,-0.3391,-0.3373,-0.3216,-0.3284,-0.3263,-0.3212,-0.3172,-0.3165,-0.3136,-0.3079,-0.3069,-0.3118,-0.3021,-0.3005,-0.2928,-0.2896,-0.2945,-0.2938,-0.2723,-0.272,-0.2717,-0.2711,0,0,0,0,0,0,-0.3398,-0.3375,-0.3347,-0.3283,-0.326,-0.3153,-0.317,-0.3161,-0.3125,-0.3126,-0.3058,-0.3048,-0.3021,-0.2938,-0.2922,-0.2888,-0.2933,-0.2726,-0.2722,-0.2718,-0.2714,-0.2708,-0.2703,0,0,0,0,0,-0.3405,-0.335,-0.3346,-0.3328,-0.3224,-0.3151,-0.3137,-0.3109,-0.3123,-0.3093,-0.3056,-0.3051,-0.2903,-0.2931,-0.2912,-0.2875,-0.2728,-0.2723,-0.2719,-0.2716,-0.2709,-0.2703,0,0,0,0,0,0,-0.341,-0.3341,-0.3336,-0.3259,-0.3211,-0.3148,-0.3111,-0.3102,-0.3048,-0.305,-0.3016,-0.3,-0.2925,-0.2892,-0.2925,-0.2797,-0.2816,-0.2808,-0.2821,-0.2813,-0.2808,-0.2817,-0.2928,0,0,0,0,0,-0.3403,-0.335,-0.3292,-0.3229,-0.3206,-0.3162,-0.3129,-0.3111,-0.3059,-0.3039,-0.2996,-0.2944,-0.2886,-0.2848,-0.2791,-0.2709,-0.2693,-0.2674,-0.2669,-0.2665,-0.2657,-0.2609,-0.2599,-0.2701,-0.2701,-0.2701,0,0,-0.3386,-0.3342,-0.3311,-0.3229,-0.319,-0.3134,-0.3145,-0.3087,-0.3044,-0.3029,-0.2954,-0.2921,-0.2861,-0.278,-0.2743,-0.2751,-0.2625,-0.2659,-0.2656,-0.265,-0.2603,-0.2593,-0.2585,-0.2698,-0.2698,-0.2699,0,0,-0.3327,-0.3289,-0.3232,-0.3192,-0.3133,-0.3104,-0.309,-0.3028,-0.3006,-0.293,-0.2917,-0.2865,-0.2766,-0.2723,-0.2689,-0.2611,-0.2603,-0.2594,-0.2565,-0.2518,-0.251,-0.2503,-0.2473,-0.2463,-0.2587,-0.2587,-0.2587,0,-0.3314,-0.3231,-0.3203,-0.3144,-0.3108,-0.3093,-0.3033,-0.2995,-0.292,-0.2894,-0.2905,-0.2779,-0.2737,-0.2646,-0.2627,-0.26,-0.2581,-0.2601,-0.2514,-0.2506,-0.2499,-0.247,-0.246,-0.2586,-0.2586,-0.2586,-0.2586,0,-0.3216,-0.3159,-0.3119,-0.3048,-0.3007,-0.2948,-0.2909,-0.2871,-0.2856,-0.2825,-0.2747,-0.2697,-0.2628,-0.2606,-0.259,-0.2511,-0.2517,-0.2522,-0.254,-0.2489,-0.2461,-0.245,-0.2584,-0.2585,-0.2585,-0.2585,0,0,-0.3158,-0.3071,-0.3056,-0.3023,-0.2955,-0.2909,-0.2849,-0.2783,-0.275,-0.2698,-0.2644,-0.256,-0.2563,-0.2523,-0.2503,-0.2462,-0.2401,-0.2471,-0.2468,-0.2458,-0.2308,-0.2304,-0.2292,-0.2396,-0.2394,-0.2392,-0.2312,0,-0.309,-0.2983,-0.2955,-0.2863,-0.2808,-0.2792,-0.2738,-0.269,-0.2659,-0.2607,-0.2572,-0.2512,-0.2522,-0.2497,-0.2457,-0.2418,-0.2371,-0.2423,-0.2344,-0.2341,-0.2358,-0.2278,-0.2275,-0.2202,-0.2302,-0.23,-0.2298,0,-0.2996,-0.2943,-0.2846,-0.2783,-0.2759,-0.2712,-0.2648,-0.2599,-0.2543,-0.2523,-0.2479,-0.2462,-0.2395,-0.2418,-0.2325,-0.2361,-0.2327,-0.2302,-0.2299,-0.2289,-0.2316,-0.2265,-0.2178,-0.2167,-0.2282,-0.2283,-0.2284,0,-0.2961,-0.2865,-0.2793,-0.2765,-0.2691,-0.2658,-0.2625,-0.2571,-0.2533,-0.2477,-0.2451,-0.2388,-0.2352,-0.2303,-0.2268,-0.2288,-0.2176,-0.2197,-0.2156,-0.2157,-0.2132,-0.2134,-0.2037,-0.2113,-0.2113,-0.2113,-0.2114,0,-0.2887,-0.2828,-0.2776,-0.2732,-0.2664,-0.2632,-0.2565,-0.2532,-0.2483,-0.2431,-0.2413,-0.2364,-0.2322,-0.2266,-0.2238,-0.2164,-0.2148,-0.2129,-0.2122,-0.213,-0.2132,-0.2106,-0.2109,-0.211,-0.2111,-0.2112,-0.2112,0,-0.2836,-0.28,-0.2721,-0.2657,-0.2639,-0.2592,-0.2536,-0.2492,-0.246,-0.2394,-0.2376,-0.2326,-0.226,-0.2221,-0.2136,-0.2118,-0.2034,-0.203,-0.2054,-0.205,-0.2011,-0.2014,-0.1893,-0.1874,-0.1964,-0.1963,-0.1962,0,-0.2791,-0.2745,-0.2676,-0.264,-0.2607,-0.255,-0.251,-0.2476,-0.2435,-0.2367,-0.233,-0.2263,-0.2207,-0.2101,-0.2055,-0.199,-0.1983,-0.1945,-0.1973,-0.1982,-0.198,-0.1983,-0.1977,-0.194,-0.1939,-0.1939,-0.1938,0,-0.2714,-0.2698,-0.2643,-0.258,-0.2534,-0.2483,-0.2432,-0.2403,-0.236,-0.2315,-0.2247,-0.2204,-0.2118,-0.205,-0.1981,-0.1945,-0.1933,-0.193,-0.1916,-0.1923,-0.1938,-0.1927,-0.2039,-0.1932,-0.1933,-0.1933,-0.1934,-0.1934,-0.2663,-0.262,-0.2565,-0.2503,-0.2461,-0.2414,-0.2368,-0.2331,-0.2274,-0.2202,-0.2185,-0.2113,-0.2055,-0.1962,-0.1924,-0.1866,-0.1872,-0.1853,-0.1848,-0.1843,-0.1841,-0.1948,-0.1853,-0.1853,-0.1853,-0.1853,-0.1853,0,-0.2583,-0.2546,-0.249,-0.242,-0.237,-0.2365,-0.2308,-0.2267,-0.2204,-0.2152,-0.2098,-0.2018,-0.1952,-0.1902,-0.1833,-0.1796,-0.1789,-0.1779,-0.1781,-0.1772,-0.1841,-0.1858,-0.1786,-0.1786,-0.1786,-0.1786,-0.1786,-0.1786,-0.2536,-0.2463,-0.244,-0.2345,-0.2308,-0.2238,-0.2206,-0.2161,-0.2119,-0.2032,-0.1977,-0.1945,-0.1892,-0.182,-0.1758,-0.1745,-0.1719,-0.171,-0.1696,-0.176,-0.1768,-0.1774,-0.1791,-0.1705,-0.1705,-0.1631,-0.1631,-0.163]}]]